Location: Proctor
(47.8934°N, 114.3048°W)
Time: 07:26:55
(UTC+00:00)

ISS - Pass Details

Date: 23 May 2024
Orbit: 409 x 421 km, 51.6° (Epoch: 13 June)

Event Time Altitude Azimuth Distance (km) Brightness Sun altitude
Rises 04:50:12 0° 293° (WNW) 2,376 1.2 -12.2°
Reaches altitude 10° 04:52:18 10° 292° (WNW) 1,507 0.1 -12.5°
Maximum altitude 04:55:41 80° 207° (SSW) 430 -3.8 -12.8°
Enters shadow 04:57:41 22° 121° (ESE) 957 -2.5 -13.0°
